This demonstration page uses our WeatherBlox Daily Observations layout. Learn more.

41.55636, -103.73856

Hourly Observations for August 2, 2016

Temp ( °F °C ) Dew Point ( °F °C ) Humidity (%) Winds ( mph kmh ) Pressure ( in mb ) Visibility ( mi km ) Precip ( " mm )
12:53 am 00:53 Clear 71 21.7 64 17.8 79 79 Calm 29.93 1014 10 16.0934 0 0
1:53 am 01:53 Clear 69 20.6 64 17.8 84 84 WNW 3 6 29.93 1014 10 16.0934 0 0
2:53 am 02:53 Clear 67 19.4 64 17.8 91 91 W 5 7 29.95 1014 10 16.0934 0 0
3:53 am 03:53 Clear 66 18.9 63 17.2 90 90 NW 5 7 29.96 1014 10 16.0934 0 0
4:53 am 04:53 Clear 66 18.9 63 17.2 90 90 Calm 29.97 1015 9 14.48406 0 0
5:53 am 05:53 Sunny 65 18.3 62 16.7 90 90 Calm 30 1016 8 12.87472 0 0
6:53 am 06:53 Sunny 69 20.6 63 17.2 81 81 E 6 9 30.01 1016 10 16.0934 0 0
7:53 am 07:53 Sunny 73 22.8 64 17.8 74 74 E 6 9 30.04 1017 10 16.0934 0 0
8:53 am 08:53 Sunny with Light Rain 76 24.4 65 18.3 69 69 ESE 9 15 30.04 1017 10 16.0934 0 0.0254
9:53 am 09:53 Sunny 79 26.1 67 19.4 67 67 ESE 14 22 30.03 1017 10 16.0934 0 0.0254
10:53 am 10:53 Sunny 83 28.3 69 20.6 63 63 ESE 12 19 30.02 1017 10 16.0934 0 0
11:26 am 11:26 Mostly Cloudy 84 29 70 21 62 62 SE 12 19 29.85 1011 10 16.0934 0 0
11:53 am 11:53 Partly Cloudy 84 28.9 69 20.6 61 61 ESE 16 26 30.02 1017 10 16.0934 0 0
12:53 pm 12:53 Sunny 87 30.6 69 20.6 55 55 ESE 14 22 30.01 1016 10 16.0934 0 0
1:53 pm 13:53 Sunny 90 32.2 68 20 48 48 ESE 17 28 29.97 1015 10 16.0934 0 0
2:53 pm 14:53 Sunny 89 31.7 68 20 50 50 E 20 31 29.95 1014 10 16.0934 0 0
3:53 pm 15:53 Sunny 87 30.6 67 19.4 51 51 ESE 13 20 29.93 1014 10 16.0934 0 0
4:30 pm 16:30 Mostly Cloudy with Nearby Thunderstorms 77 25 54 12 44 44 WNW 21 33 29.88 1012 10 16.0934 0 0
4:53 pm 16:53 Cloudy with Light Thunderstorms 72 22.2 59 15 64 64 WNW 10 17 30.02 1017 6 9.65604 0 0.0254
5:30 pm 17:30 Mostly Cloudy with Nearby Thunderstorms 72 22 59 15 65 65 ENE 13 20 29.91 1013 10 16.0934 0 0
5:33 pm 17:33 Mostly Cloudy 70 21.1 60 15.6 71 71 ENE 15 24 29.94 1014 10 16.0934 0.01 0.254
5:53 pm 17:53 Mostly Sunny 70 21.1 59 15 68 68 VRB 6 9 30.05 1018 10 16.0934 0.01 0.254
6:53 pm 18:53 Sunny 72 22.2 59 15 64 64 SE 13 20 30.03 1017 10 16.0934 0 0
7:53 pm 19:53 Mostly Sunny 72 22.2 56 13.3 57 57 E 12 19 30.03 1017 10 16.0934 0 0
8:53 pm 20:53 Clear 68 20 55 12.8 63 63 SE 12 19 29.99 1016 10 16.0934 0 0
9:53 pm 21:53 Clear 66 18.9 55 12.8 68 68 ESE 3 6 29.98 1015 10 16.0934 0 0
10:53 pm 22:53 Clear 64 17.8 55 12.8 73 73 ESE 5 7 29.97 1015 10 16.0934 0 0
11:53 pm 23:53 Clear 71 21.7 52 11.1 51 51 SSE 7 11 29.96 1014 10 16.0934 0 0

Powered by AerisWeather